KAC965 LFPG-LEBB

Flight info

Callsign KAC965
Flight time 2h 23m
Altitude 29000
Route AGOPA DCT ARKIP DCT ARMAL DCT ARTAX DCT BEBIX DCT LMG DCT UVELI DCT OSMOB DCT VAVIX/N0405F230 DCT BTZ DCT URUNA P181 SSN L176 CEGAM
Aircraft B738/M-SDE2E3FGHIRWXY/LB1

Departure

Time 2026-05-05 17:42
Airport Charles de Gaulle International Airport (LFPG)

Arrival

Time 2026-05-05 20:05
Airport Bilbao Airport (LEBB)
Time Latitude Longitude Altitude Speed Heading
2026-05-05 16:59 49.01672 2.54435 353 ft 0 kts 216°
2026-05-05 17:22 49.01697 2.54461 353 ft 4 kts 209°
2026-05-05 17:22 49.01721 2.54478 356 ft 4 kts 196°
2026-05-05 17:22 49.01746 2.54484 359 ft 4 kts 161°
2026-05-05 17:22 49.01760 2.54471 358 ft 1 kts 121°
2026-05-05 17:23 49.01761 2.54467 353 ft 0 kts 121°
2026-05-05 17:27 49.01759 2.54472 358 ft 2 kts 121°
2026-05-05 17:27 49.01747 2.54502 362 ft 5 kts 121°
2026-05-05 17:28 49.01718 2.54562 353 ft 9 kts 132°
2026-05-05 17:28 49.01667 2.54633 356 ft 11 kts 142°
2026-05-05 17:28 49.01596 2.54699 359 ft 13 kts 154°
2026-05-05 17:28 49.01500 2.54741 356 ft 15 kts 171°
2026-05-05 17:29 49.01389 2.54739 360 ft 17 kts 190°
2026-05-05 17:29 49.01292 2.54700 358 ft 5 kts 197°
2026-05-05 17:29 49.01248 2.54703 356 ft 7 kts 159°
2026-05-05 17:29 49.01224 2.54773 356 ft 9 kts 87°
2026-05-05 17:30 49.01229 2.54877 358 ft 11 kts 85°
2026-05-05 17:30 49.01212 2.54989 362 ft 12 kts 137°
2026-05-05 17:30 49.01131 2.55033 358 ft 13 kts 164°
2026-05-05 17:30 49.01039 2.55073 356 ft 14 kts 163°
2026-05-05 17:31 49.00939 2.55118 355 ft 16 kts 163°
2026-05-05 17:31 49.00831 2.55165 358 ft 17 kts 164°
2026-05-05 17:31 49.00718 2.55213 357 ft 17 kts 165°
2026-05-05 17:31 49.00597 2.55267 356 ft 18 kts 153°
2026-05-05 17:32 49.00528 2.55422 363 ft 18 kts 137°
2026-05-05 17:32 49.00449 2.55471 356 ft 19 kts 164°
2026-05-05 17:32 49.00317 2.55528 360 ft 20 kts 164°
2026-05-05 17:32 49.00181 2.55589 353 ft 20 kts 163°
2026-05-05 17:33 49.00049 2.55645 360 ft 20 kts 164°
2026-05-05 17:33 48.99929 2.55739 360 ft 20 kts 119°
2026-05-05 17:33 48.99891 2.55941 353 ft 20 kts 103°
2026-05-05 17:33 48.99896 2.56145 353 ft 19 kts 84°
2026-05-05 17:34 48.99907 2.56341 358 ft 18 kts 87°
2026-05-05 17:34 48.99916 2.56533 360 ft 18 kts 85°
2026-05-05 17:34 48.99925 2.56714 353 ft 17 kts 87°
2026-05-05 17:34 48.99934 2.56891 353 ft 16 kts 85°
2026-05-05 17:35 48.99943 2.57061 356 ft 16 kts 85°
2026-05-05 17:35 48.99953 2.57227 358 ft 16 kts 85°
2026-05-05 17:35 48.99962 2.57400 353 ft 17 kts 85°
2026-05-05 17:35 48.99971 2.57584 360 ft 18 kts 85°
2026-05-05 17:36 48.99983 2.57786 359 ft 19 kts 85°
2026-05-05 17:36 48.99995 2.57985 353 ft 19 kts 84°
2026-05-05 17:36 49.00004 2.58180 353 ft 18 kts 87°
2026-05-05 17:36 49.00012 2.58370 353 ft 18 kts 85°
2026-05-05 17:37 49.00024 2.58552 357 ft 17 kts 85°
2026-05-05 17:37 49.00032 2.58719 356 ft 15 kts 85°
2026-05-05 17:37 49.00040 2.58874 359 ft 14 kts 85°
2026-05-05 17:37 49.00047 2.59021 353 ft 14 kts 85°
2026-05-05 17:38 49.00055 2.59161 355 ft 13 kts 84°
2026-05-05 17:38 49.00064 2.59297 353 ft 13 kts 84°
2026-05-05 17:38 49.00071 2.59429 359 ft 12 kts 85°
2026-05-05 17:38 49.00078 2.59558 353 ft 12 kts 85°
2026-05-05 17:39 49.00084 2.59683 356 ft 12 kts 86°
2026-05-05 17:39 49.00088 2.59763 355 ft 4 kts 86°
2026-05-05 17:39 49.00092 2.59860 355 ft 18 kts 86°
2026-05-05 17:39 49.00053 2.59999 359 ft 14 kts 149°
2026-05-05 17:40 48.99971 2.60069 358 ft 13 kts 172°
2026-05-05 17:40 48.99897 2.59999 353 ft 13 kts 234°
2026-05-05 17:40 48.99845 2.59889 353 ft 13 kts 234°
2026-05-05 17:40 48.99811 2.59773 354 ft 12 kts 259°
2026-05-05 17:41 48.99808 2.59738 355 ft 0 kts 264°
2026-05-05 17:41 48.99806 2.59698 356 ft 26 kts 264°
2026-05-05 17:41 48.99766 2.58952 358 ft 114 kts 266°
2026-05-05 17:42 48.99683 2.57362 412 ft 182 kts 270°
2026-05-05 17:42 48.99653 2.55322 1224 ft 200 kts 269°
2026-05-05 17:42 48.99577 2.53309 2585 ft 187 kts 267°
2026-05-05 17:42 48.99432 2.51214 3216 ft 210 kts 265°
2026-05-05 17:43 48.99272 2.48849 3503 ft 233 kts 264°
2026-05-05 17:43 48.99109 2.46366 4076 ft 241 kts 264°
2026-05-05 17:43 48.98949 2.43724 4536 ft 260 kts 265°
2026-05-05 17:43 48.98793 2.40968 5284 ft 267 kts 265°
2026-05-05 17:44 48.98635 2.38160 6135 ft 269 kts 265°
2026-05-05 17:44 48.98475 2.35291 6972 ft 273 kts 265°
2026-05-05 17:44 48.98314 2.32407 7798 ft 276 kts 265°
2026-05-05 17:44 48.98150 2.29476 8586 ft 280 kts 265°
2026-05-05 17:45 48.97983 2.26515 9387 ft 283 kts 265°
2026-05-05 17:45 48.97815 2.23527 10136 ft 288 kts 264°
2026-05-05 17:45 48.97636 2.20363 10425 ft 311 kts 264°
2026-05-05 17:45 48.97445 2.16996 10885 ft 324 kts 264°
2026-05-05 17:46 48.97251 2.13591 11587 ft 328 kts 264°
2026-05-05 17:46 48.97052 2.10113 12369 ft 330 kts 264°
2026-05-05 17:46 48.96804 2.06703 13096 ft 333 kts 256°
2026-05-05 17:46 48.95852 2.03480 13781 ft 335 kts 232°
2026-05-05 17:47 48.94141 2.01104 14492 ft 336 kts 210°
2026-05-05 17:47 48.91953 1.99802 15176 ft 340 kts 189°
2026-05-05 17:47 48.89603 1.99568 15841 ft 343 kts 181°
2026-05-05 17:47 48.87224 1.99552 16482 ft 347 kts 180°
2026-05-05 17:48 48.84792 1.99571 17119 ft 350 kts 180°
2026-05-05 17:48 48.82325 1.99585 17825 ft 351 kts 180°
2026-05-05 17:48 48.79897 1.99582 18469 ft 354 kts 180°
2026-05-05 17:48 48.77439 1.99565 19044 ft 357 kts 180°
2026-05-05 17:49 48.74926 1.99540 19583 ft 361 kts 180°
2026-05-05 17:49 48.72386 1.99510 20091 ft 366 kts 180°
2026-05-05 17:49 48.69826 1.99478 20630 ft 370 kts 180°
2026-05-05 17:49 48.67254 1.99442 21137 ft 374 kts 180°
2026-05-05 17:50 48.64622 1.99416 21645 ft 377 kts 179°
2026-05-05 17:50 48.61997 1.99459 22095 ft 382 kts 178°
2026-05-05 17:50 48.59324 1.99538 22549 ft 386 kts 178°
2026-05-05 17:50 48.56640 1.99625 23014 ft 389 kts 178°
2026-05-05 17:51 48.53897 1.99711 23459 ft 393 kts 178°
2026-05-05 17:51 48.51170 1.99794 23874 ft 397 kts 178°
2026-05-05 17:51 48.48380 1.99869 24263 ft 402 kts 178°
2026-05-05 17:51 48.45560 1.99944 24697 ft 404 kts 178°
2026-05-05 17:52 48.42768 2.00017 25186 ft 405 kts 177°
2026-05-05 17:52 48.39957 2.00090 25660 ft 406 kts 177°
2026-05-05 17:52 48.37111 2.00163 26106 ft 407 kts 177°
2026-05-05 17:52 48.34257 2.00237 26503 ft 409 kts 177°
2026-05-05 17:53 48.31427 2.00311 26889 ft 412 kts 177°
2026-05-05 17:53 48.28543 2.00388 27283 ft 413 kts 177°
2026-05-05 17:53 48.25637 2.00472 27676 ft 415 kts 177°
2026-05-05 17:53 48.22771 2.00561 28044 ft 416 kts 177°
2026-05-05 17:54 48.19890 2.00650 28394 ft 418 kts 176°
2026-05-05 17:54 48.16956 2.00740 28752 ft 419 kts 177°
2026-05-05 17:54 48.14046 2.00829 28819 ft 426 kts 176°
2026-05-05 17:55 48.07998 2.01012 28838 ft 439 kts 176°
2026-05-05 17:55 48.01816 2.01334 28847 ft 450 kts 175°
2026-05-05 17:56 47.95607 2.01723 28830 ft 448 kts 175°
2026-05-05 17:56 47.89363 2.02098 28828 ft 446 kts 176°
2026-05-05 17:57 47.83174 2.02457 28831 ft 445 kts 176°
2026-05-05 17:57 47.76992 2.02812 28831 ft 444 kts 176°
2026-05-05 17:58 47.70823 2.03168 28835 ft 444 kts 176°
2026-05-05 17:58 47.64658 2.03522 28838 ft 444 kts 176°
2026-05-05 17:59 47.58480 2.03879 28841 ft 444 kts 176°
2026-05-05 17:59 47.52307 2.04241 28845 ft 444 kts 176°
2026-05-05 18:00 47.46102 2.04603 28848 ft 444 kts 176°
2026-05-05 18:00 47.39957 2.04961 28851 ft 444 kts 176°
2026-05-05 18:01 47.33758 2.05197 28846 ft 445 kts 182°
2026-05-05 18:01 47.27653 2.03811 28851 ft 445 kts 189°
2026-05-05 18:02 47.21598 2.02184 28851 ft 445 kts 189°
2026-05-05 18:02 47.15477 2.00588 28851 ft 444 kts 189°
2026-05-05 18:03 47.09416 1.99047 28849 ft 443 kts 188°
2026-05-05 18:03 47.03336 1.97518 28854 ft 442 kts 189°
2026-05-05 18:04 46.97268 1.95996 28859 ft 442 kts 189°
2026-05-05 18:04 46.91253 1.94488 28864 ft 441 kts 189°
2026-05-05 18:05 46.85172 1.92968 28860 ft 441 kts 189°
2026-05-05 18:05 46.79134 1.91461 28861 ft 441 kts 189°
2026-05-05 18:06 46.73100 1.89959 28862 ft 441 kts 189°
2026-05-05 18:06 46.67025 1.88450 28864 ft 440 kts 189°
2026-05-05 18:07 46.61016 1.86962 28860 ft 440 kts 189°
2026-05-05 18:07 46.54960 1.85465 28859 ft 440 kts 189°
2026-05-05 18:08 46.48942 1.83980 28864 ft 439 kts 189°
2026-05-05 18:08 46.42945 1.82503 28863 ft 437 kts 189°
2026-05-05 18:09 46.36952 1.81025 28871 ft 437 kts 189°
2026-05-05 18:09 46.30958 1.79567 28871 ft 438 kts 189°
2026-05-05 18:09 46.28010 1.78552 28866 ft 438 kts 200°
2026-05-05 18:10 46.25225 1.76735 28894 ft 435 kts 208°
2026-05-05 18:10 46.20305 1.71698 28889 ft 435 kts 220°
2026-05-05 18:11 46.15752 1.65893 28884 ft 434 kts 220°
2026-05-05 18:11 46.11221 1.60174 28898 ft 433 kts 220°
2026-05-05 18:12 46.06657 1.54509 28897 ft 435 kts 219°
2026-05-05 18:12 46.02020 1.48778 28918 ft 446 kts 219°
2026-05-05 18:13 45.97254 1.42871 28912 ft 453 kts 222°
2026-05-05 18:13 45.93350 1.35895 28903 ft 452 kts 238°
2026-05-05 18:14 45.90535 1.27840 28902 ft 451 kts 242°
2026-05-05 18:14 45.87731 1.19788 28908 ft 450 kts 241°
2026-05-05 18:15 45.84885 1.11787 28919 ft 451 kts 241°
2026-05-05 18:15 45.81814 1.03908 28911 ft 451 kts 232°
2026-05-05 18:16 45.80813 1.02063 28919 ft 450 kts 228°
2026-05-05 18:16 45.76233 0.95977 28916 ft 451 kts 218°
2026-05-05 18:17 45.72719 0.91860 28906 ft 453 kts 218°
2026-05-05 18:17 45.68657 0.87087 28909 ft 454 kts 219°
2026-05-05 18:18 45.63783 0.81309 28918 ft 456 kts 219°
2026-05-05 18:18 45.58907 0.75510 28916 ft 456 kts 219°
2026-05-05 18:19 45.54017 0.69702 28918 ft 457 kts 219°
2026-05-05 18:19 45.50731 0.65809 28916 ft 457 kts 219°
2026-05-05 18:20 45.48543 0.63218 28916 ft 457 kts 219°
2026-05-05 18:20 45.45241 0.59316 28916 ft 457 kts 219°
2026-05-05 18:21 45.44661 0.58631 28916 ft 457 kts 219°
2026-05-05 18:22 45.40661 0.53915 28916 ft 457 kts 219°
2026-05-05 18:22 45.35791 0.48184 28915 ft 457 kts 219°
2026-05-05 18:23 45.30899 0.42439 28919 ft 456 kts 219°
2026-05-05 18:23 45.30633 0.42126 28919 ft 456 kts 219°
2026-05-05 18:24 45.28590 0.39732 28917 ft 456 kts 219°
2026-05-05 18:24 45.23707 0.34018 28916 ft 456 kts 219°
2026-05-05 18:25 45.20050 0.29747 28922 ft 456 kts 219°
2026-05-05 18:27 45.17326 0.26570 28928 ft 455 kts 219°
2026-05-05 18:27 45.12433 0.20875 28927 ft 455 kts 219°
2026-05-05 18:28 45.05114 0.12377 28931 ft 454 kts 219°
2026-05-05 18:28 45.00196 0.06688 28934 ft 453 kts 219°
2026-05-05 18:29 44.95326 0.01066 28935 ft 452 kts 219°
2026-05-05 18:29 44.90454 -0.04546 28921 ft 454 kts 218°
2026-05-05 18:30 44.85515 -0.10225 28942 ft 464 kts 219°
2026-05-05 18:30 44.80483 -0.16000 28932 ft 466 kts 219°
2026-05-05 18:31 44.75476 -0.21731 28940 ft 465 kts 219°
2026-05-05 18:31 44.70446 -0.27479 28949 ft 463 kts 219°
2026-05-05 18:32 44.65464 -0.33155 28944 ft 463 kts 218°
2026-05-05 18:32 44.60264 -0.38452 28945 ft 462 kts 214°
2026-05-05 18:33 44.54925 -0.43490 28943 ft 461 kts 214°
2026-05-05 18:33 44.49636 -0.48509 28946 ft 460 kts 214°
2026-05-05 18:34 44.44337 -0.53586 28946 ft 460 kts 214°
2026-05-05 18:34 44.39065 -0.58641 28970 ft 459 kts 214°
2026-05-05 18:35 44.33789 -0.63687 28950 ft 459 kts 214°
2026-05-05 18:35 44.28533 -0.68700 28959 ft 459 kts 214°
2026-05-05 18:36 44.23344 -0.73831 28952 ft 458 kts 216°
2026-05-05 18:36 44.18196 -0.79138 28955 ft 458 kts 217°
2026-05-05 18:37 44.13111 -0.84366 28969 ft 457 kts 216°
2026-05-05 18:37 44.07953 -0.89622 28967 ft 456 kts 216°
2026-05-05 18:38 44.02853 -0.94793 28965 ft 455 kts 216°
2026-05-05 18:38 43.97722 -0.99982 28962 ft 455 kts 216°
2026-05-05 18:39 43.92610 -1.05142 28969 ft 451 kts 217°
2026-05-05 18:39 43.87569 -1.10219 28974 ft 449 kts 217°
2026-05-05 18:40 43.86666 -1.11128 28963 ft 449 kts 217°
2026-05-05 18:41 43.82321 -1.15495 28975 ft 447 kts 217°
2026-05-05 18:41 43.77300 -1.20531 28976 ft 447 kts 217°
2026-05-05 18:42 43.72258 -1.25576 28981 ft 446 kts 217°
2026-05-05 18:42 43.67231 -1.30598 28969 ft 443 kts 217°
2026-05-05 18:43 43.64748 -1.33073 28697 ft 436 kts 217°
2026-05-05 18:43 43.62346 -1.35466 28284 ft 426 kts 217°
2026-05-05 18:43 43.60084 -1.37717 27804 ft 421 kts 217°
2026-05-05 19:41 43.58914 -1.38881 27539 ft 419 kts 217°
2026-05-05 19:41 43.56585 -1.41196 27002 ft 414 kts 217°
2026-05-05 19:41 43.54248 -1.43518 26474 ft 410 kts 217°
2026-05-05 19:41 43.51949 -1.45800 25941 ft 406 kts 217°
2026-05-05 19:42 43.49656 -1.48071 25416 ft 401 kts 217°
2026-05-05 19:42 43.47494 -1.50424 24884 ft 397 kts 224°
2026-05-05 19:42 43.45607 -1.53193 24372 ft 392 kts 232°
2026-05-05 19:42 43.44076 -1.56242 23850 ft 389 kts 236°
2026-05-05 19:43 43.42591 -1.59366 23327 ft 386 kts 236°
2026-05-05 19:43 43.41137 -1.62405 22821 ft 383 kts 236°
2026-05-05 19:43 43.39659 -1.65466 22310 ft 379 kts 236°
2026-05-05 19:43 43.38208 -1.68454 21811 ft 376 kts 236°
2026-05-05 19:44 43.36761 -1.71418 21318 ft 373 kts 236°
2026-05-05 19:44 43.35317 -1.74372 20828 ft 370 kts 236°
2026-05-05 19:44 43.33890 -1.77291 20322 ft 368 kts 236°
2026-05-05 19:44 43.32465 -1.80204 20091 ft 361 kts 236°
2026-05-05 19:45 43.31003 -1.83002 20041 ft 359 kts 230°
2026-05-05 19:45 43.29292 -1.85383 20020 ft 347 kts 223°
2026-05-05 19:45 43.27533 -1.87549 20002 ft 333 kts 222°
2026-05-05 19:45 43.25828 -1.89638 19999 ft 319 kts 222°
2026-05-05 19:46 43.24209 -1.91628 20002 ft 305 kts 223°
2026-05-05 19:46 43.22674 -1.93523 20002 ft 292 kts 223°
2026-05-05 19:46 43.21189 -1.95362 19996 ft 279 kts 223°
2026-05-05 19:46 43.19796 -1.97090 20001 ft 266 kts 223°
2026-05-05 19:47 43.18446 -1.98767 19997 ft 256 kts 223°
2026-05-05 19:47 43.17156 -2.00369 20000 ft 252 kts 223°
2026-05-05 19:47 43.15828 -2.02021 20040 ft 264 kts 223°
2026-05-05 19:47 43.14440 -2.03747 20032 ft 271 kts 223°
2026-05-05 19:48 43.13055 -2.05464 20019 ft 270 kts 223°
2026-05-05 19:48 43.11662 -2.07191 20005 ft 268 kts 223°
2026-05-05 19:48 43.10281 -2.08900 20011 ft 265 kts 223°
2026-05-05 19:48 43.08926 -2.10578 20001 ft 263 kts 223°
2026-05-05 19:49 43.07556 -2.12275 19741 ft 268 kts 223°
2026-05-05 19:49 43.06622 -2.13435 19227 ft 280 kts 223°
2026-05-05 19:49 43.04611 -2.15927 17715 ft 308 kts 223°
2026-05-05 19:49 43.02968 -2.17962 16518 ft 326 kts 224°
2026-05-05 19:50 43.01568 -2.20406 15324 ft 337 kts 245°
2026-05-05 19:50 43.00961 -2.23550 14144 ft 347 kts 267°
2026-05-05 19:50 43.01293 -2.26806 12983 ft 355 kts 289°
2026-05-05 19:50 43.02556 -2.29749 11812 ft 362 kts 309°
2026-05-05 19:51 43.04286 -2.32200 10699 ft 364 kts 313°
2026-05-05 19:51 43.06061 -2.34663 9778 ft 361 kts 313°
2026-05-05 19:51 43.07763 -2.37071 9586 ft 366 kts 312°
2026-05-05 19:51 43.09556 -2.39635 9474 ft 371 kts 312°
2026-05-05 19:52 43.11297 -2.42128 8909 ft 361 kts 312°
2026-05-05 19:52 43.13015 -2.44645 7959 ft 358 kts 311°
2026-05-05 19:52 43.14932 -2.46729 7000 ft 359 kts 333°
2026-05-05 19:52 43.17330 -2.47626 6314 ft 353 kts 352°
2026-05-05 19:53 43.19776 -2.47557 5494 ft 351 kts
2026-05-05 19:53 43.22078 -2.46602 4781 ft 349 kts 24°
2026-05-05 19:53 43.24037 -2.44799 4593 ft 332 kts 41°
2026-05-05 19:53 43.25465 -2.42414 4419 ft 314 kts 58°
2026-05-05 19:54 43.26266 -2.39754 4294 ft 298 kts 75°
2026-05-05 19:54 43.26508 -2.37004 4180 ft 283 kts 90°
2026-05-05 19:54 43.26277 -2.34382 3923 ft 281 kts 102°
2026-05-05 19:54 43.25737 -2.31851 3647 ft 279 kts 112°
2026-05-05 19:55 43.24803 -2.29586 3597 ft 266 kts 133°
2026-05-05 19:55 43.23861 -2.28577 3572 ft 253 kts 159°
2026-05-05 19:55 43.22207 -2.28293 3585 ft 234 kts 198°
2026-05-05 19:55 43.20300 -2.29524 3622 ft 230 kts 210°
2026-05-05 19:56 43.19360 -2.30220 3567 ft 230 kts 210°
2026-05-05 19:56 43.18029 -2.31432 3583 ft 228 kts 220°
2026-05-05 19:56 43.16528 -2.33414 3601 ft 224 kts 233°
2026-05-05 19:56 43.15903 -2.34537 3567 ft 221 kts 238°
2026-05-05 19:57 43.14914 -2.36973 3630 ft 222 kts 247°
2026-05-05 19:57 43.14529 -2.38315 3586 ft 232 kts 252°
2026-05-05 19:57 43.14168 -2.40485 3607 ft 233 kts 265°
2026-05-05 19:57 43.14127 -2.42662 3562 ft 223 kts 275°
2026-05-05 19:58 43.14324 -2.44712 3566 ft 212 kts 282°
2026-05-05 19:58 43.14650 -2.46595 3585 ft 199 kts 284°
2026-05-05 19:58 43.14984 -2.48388 3583 ft 189 kts 284°
2026-05-05 19:58 43.15320 -2.50187 3625 ft 212 kts 285°
2026-05-05 19:59 43.15700 -2.52204 3602 ft 221 kts 285°
2026-05-05 19:59 43.16084 -2.54235 3605 ft 224 kts 284°
2026-05-05 19:59 43.16481 -2.56306 3606 ft 225 kts 285°
2026-05-05 19:59 43.16867 -2.58347 3592 ft 219 kts 285°
2026-05-05 20:00 43.17251 -2.60366 3575 ft 215 kts 285°
2026-05-05 20:00 43.17758 -2.62245 3585 ft 212 kts 299°
2026-05-05 20:00 43.18517 -2.63996 3599 ft 215 kts 300°
2026-05-05 20:00 43.19287 -2.65777 3605 ft 218 kts 300°
2026-05-05 20:01 43.20063 -2.67575 3600 ft 219 kts 300°
2026-05-05 20:01 43.20820 -2.69334 3577 ft 213 kts 300°
2026-05-05 20:01 43.21565 -2.71067 3576 ft 209 kts 300°
2026-05-05 20:01 43.22316 -2.72814 3358 ft 214 kts 300°
2026-05-05 20:02 43.23065 -2.74549 3092 ft 214 kts 300°
2026-05-05 20:02 43.23859 -2.76285 2832 ft 212 kts 305°
2026-05-05 20:02 43.24729 -2.77874 2521 ft 207 kts 306°
2026-05-05 20:02 43.25596 -2.79420 2265 ft 200 kts 307°
2026-05-05 20:03 43.26323 -2.80967 1985 ft 190 kts 296°
2026-05-05 20:03 43.26906 -2.82547 1699 ft 181 kts 296°
2026-05-05 20:03 43.27466 -2.84044 1425 ft 169 kts 297°
2026-05-05 20:03 43.28022 -2.85409 1109 ft 158 kts 298°
2026-05-05 20:04 43.28511 -2.86711 776 ft 144 kts 296°
2026-05-05 20:04 43.28931 -2.87862 515 ft 130 kts 296°
2026-05-05 20:04 43.29347 -2.88954 404 ft 142 kts 297°
2026-05-05 20:04 43.29768 -2.90124 169 ft 128 kts 296°
2026-05-05 20:05 43.30135 -2.91126 125 ft 106 kts 295°
2026-05-05 20:05 43.30414 -2.91894 123 ft 73 kts 296°
2026-05-05 20:05 43.30533 -2.92225 128 ft 30 kts 296°
2026-05-05 20:05 43.30601 -2.92482 126 ft 28 kts 266°
2026-05-05 20:06 43.30514 -2.92709 127 ft 26 kts 232°
2026-05-05 20:06 43.30399 -2.92892 127 ft 25 kts 230°
2026-05-05 20:06 43.30335 -2.92988 135 ft 1 kts 227°
2026-05-05 20:06 43.30331 -2.92994 130 ft 1 kts 227°
2026-05-05 20:07 43.30327 -2.93000 125 ft 1 kts 227°
2026-05-05 20:07 43.30313 -2.93006 125 ft 4 kts 178°
2026-05-05 20:07 43.30271 -2.92946 125 ft 14 kts 97°
2026-05-05 20:07 43.30230 -2.92500 125 ft 88 kts 96°
2026-05-05 20:08 43.30166 -2.91708 124 ft 78 kts 96°
2026-05-05 20:08 43.30114 -2.91138 126 ft 46 kts 97°
2026-05-05 20:08 43.30080 -2.90720 127 ft 31 kts 95°
2026-05-05 20:08 43.30140 -2.90589 124 ft 16 kts 30°
2026-05-05 20:09 43.30236 -2.90520 125 ft 10 kts
2026-05-05 20:09 43.30297 -2.90572 121 ft 10 kts 324°
2026-05-05 20:09 43.30347 -2.90638 127 ft 10 kts 300°
2026-05-05 20:09 43.30378 -2.90716 126 ft 8 kts 298°
2026-05-05 20:10 43.30408 -2.90774 127 ft 7 kts 343°
2026-05-05 20:10 43.30453 -2.90746 122 ft 6 kts 27°
2026-05-05 20:10 43.30458 -2.90743 124 ft 0 kts 27°
2026-05-05 20:10 43.30458 -2.90742 125 ft 0 kts 27°